Regional Weather Roundup
Issued by NWS Sterling, VA

Home | Current Version | Previous Version | Graphics & Text | Print | Product List | Glossary On
Versions: 1 2 3 4 5 6 7 8 9 10 11 12 13 14 15 16 17 18 19 20 21 22 23 24 25 26 27
000
ASUS41 KLWX 261110
RWRLWX

REGIONAL WEATHER ROUNDUP
NATIONAL WEATHER SERVICE BALTIMORE MD/WASHINGTON DC
700 AM EDT TUE JUL 26 2016

Note: "FAIR" indicates few or no clouds below 12,000 feet
with no significant weather and/or obstructions to visibility.
 TC=TEMPERATURE CELSIUS

 * =Non NWS site. Station does not report precipitation (e.g. rain,
    snow, etc.), thunder, or fog.

DCZ001-MDZ009-015-VAZ040>042-051-053>054-261200-
WASHINGTON METRO

CITY           SKY/WX    TMP DP  RH WIND       PRES   REMARKS
WASHINGTON NAT MOCLDY    81  73  76 NW3       29.95R
DULLES         MOCLDY    77  72  84 NW3       29.96R
ANDREWS AFB    CLOUDY    76  73  92 N2        29.95R
FT BELVOIR     FAIR      75  74  96 SE2       29.95R FOG
COLLEGE PARK*  FAIR      73  72  94 CALM      29.95R
LEESBURG*      FAIR      77  73  88 CALM      29.98R
MANASSAS*      CLEAR     75  75 100 CALM      29.96R
GAITHERSBURG*  CLOUDY    72  68  88 CALM      30.01R

$$

MDZ006>007-011-014-261200-
BALTIMORE METRO

CITY           SKY/WX    TMP DP  RH WIND       PRES   REMARKS
BWI AIRPORT    MOCLDY    76  70  82 W3        29.94R
MD SCIENCE CTR   N/A     81  70  69 MISG      29.94R
MARTIN STATE   PTCLDY    77  73  88 NW5       29.95R
ANNAPOLIS      PTCLDY    78  76  93 CALM      29.94R
FORT MEADE*    CLEAR     72  72 100 CALM      29.97R

$$

MDZ012-015-019>023-261200-
MARYLAND EASTERN SHORE

CITY           SKY/WX    TMP DP  RH WIND       PRES   REMARKS
OCEAN CITY     PTSUNNY   77  74  90 CALM      29.92R
SALISBURY      MOSUNNY   76  75  97 NW3       29.92R
BAY BRIDGE AP* PTCLDY    79  75  89 NW3       29.94R
CAMBRIDGE*     CLOUDY    73  73 100 N3        29.92S
EASTON*        MOCLDY    75  75 100 CALM      29.97R

$$

MDZ017>025-261200-
SOUTHERN MARYLAND

CITY           SKY/WX    TMP DP  RH WIND       PRES   REMARKS
PATUXENT RIVER MOCLDY    79  75  87 N7        29.93R
ST INIGOES     CLEAR     81  77  88 NW3       29.92R
LEONARDTOWN*   CLEAR     75  73  94 CALM      29.95R

$$

MDZ003>005-261200-
NORTH CENTRAL MARYLAND

CITY           SKY/WX    TMP DP  RH WIND       PRES   REMARKS
FREDERICK*     NOT AVBL
HAGERSTOWN APT CLOUDY    76  71  85 CALM      29.98R

$$

MDZ501>502-261200-
WESTERN MARYLAND

CITY           SKY/WX    TMP DP  RH WIND       PRES   REMARKS
OAKLAND*       NOT AVBL
CUMBERLAND*    PTCLDY    72  70  94 CALM      30.05R

$$

VAZ025>031-261200-
SHENANDOAH VALLEY

CITY           SKY/WX    TMP DP  RH WIND       PRES   REMARKS
WINCHESTER*    FAIR      73  72  94 CALM      29.99R
FRONT ROYAL*   FAIR      73  72  94 CALM      29.98R
LURAY*         FAIR      73  73 100 CALM      30.00R
NEW MARKET*    FAIR     N/A N/A N/A CALM      29.99S
STAUNTON*      FAIR      71  70  96 CALM      30.04R
WAYNESBORO*    FAIR      75  70  85 CALM      30.03S

$$

WVZ021-048>050-054>055-261200-
EASTERN WEST VIRGINIA PANHANDLE

CITY           SKY/WX    TMP DP  RH WIND       PRES   REMARKS
MARTINSBURG    FAIR      73  69  87 S5        29.97R
PETERSBURG*    FAIR      73  72  97 CALM      30.01S FOG

$$

VAZ036>039-050-261200-
CENTRAL FOOTHILLS

CITY           SKY/WX    TMP DP  RH WIND       PRES   REMARKS
CHARLOTTESVILL FAIR      80  72  76 W3        29.97R
CULPEPER*      FAIR      75  75 100 CALM      29.97R FOG
ORANGE*          N/A     73  73 100 CALM      29.98S
GORDONSVILLE*  FAIR      73  73 100 NE5       29.96S
WARRENTON*     FAIR      75  70  84 CALM      29.96R

$$

VAZ055>057-261200-
NORTH AND CENTRAL PIEDMONT

CITY           SKY/WX    TMP DP  RH WIND       PRES   REMARKS
FREDERICKSBRG* FAIR      79  79 100 CALM      29.94R
STAFFORD*      FAIR      75  73  95 CALM      30.00R FOG

$$

NCZ024-NYZ072-PAZ021-071-VAZ022-071-261200-
OTHER REGIONAL OBSERVATIONS

CITY           SKY/WX    TMP DP  RH WIND       PRES   REMARKS
NEW YORK CITY  SUNNY     72  68  87 CALM      29.93R
PHILADELPHIA   PTSUNNY   75  70  84 W7        29.94R
PITTSBURGH     CLOUDY    71  66  84 CALM      30.02R
ROANOKE        FAIR      76  71  85 NW7       30.06R
RICHMOND       MOCLDY    78  74  87 SW5       29.95R
RALEIGH        MOCLDY    76  72  87 SW7       30.01S

$$

ANZ530>537-261200-
MARINE OBSERVATIONS

STATION/POSITION TIME  TEMP    WIND        PRES
                       AIR SEA DIR/SP/G
                 (UTC) (F)     (DEG/KT/KT) (MB)
THOMAS PT LIGHT  1100   78 82  320/  4/  5 1015.3R
BALT KEY BRIDGE  1042   80     290/  4/  4 1013.6R
COVE POINT       1042   79     350/ 11/ 12 1013.8R
LEWISETTA        1048   81 85  280/  6/  8 1013.1R
SOLOMONS ISLAND  1042   79 84  330/  4/  6   N/A
PINEY POINT      1048          340/  8/  9   N/A

$$





USA.gov is the U.S. government's official web portal to all federal, state and local government web resources and services.